Location: ????? ??????
(37.8317°N, 23.8750°E)
Time: 13:08:29
(UTC+00:00)

Cosmos 1943 - Pass Details

Date: 20 January 2021
Orbit: 834 x 849 km, 71.0° (Epoch: 03 March)

Event Time Altitude Azimuth Distance (km) Brightness Sun altitude
Rises 15:55:26 0° 339° (NNW) 3,412 6.4 -4.6°
Reaches altitude 10° 15:57:54 10° 342° (NNW) 2,471 5.6 -5.0°
Maximum altitude 16:03:34 73° 66° (ENE) 879 3.2 -6.1°
Drops below altitude 10° 16:09:11 10° 152° (SSE) 2,446 5.5 -7.1°
Sets 16:11:37 0° 154° (SSE) 3,374 6.3 -7.6°
